FW8140 Weather Reports


time (UTC)temp
C
wind
direction
speed
KPH
gust
KPH
rain 1hr
cm
rain 24hr
cm
rain mn
cm
humidity
%
barometer
mb
20260503053055 20 0 0.0 1.6 0.00 0.91 0.00 99 1014.6
20260503051551 20 0 0.0 0.0 0.00 0.91 0.00 99 1014.9
20260503050054 20 0 0.0 0.0 0.00 0.91 0.00 99 1014.9
20260503044558 20 0 0.0 1.6 0.00 0.91 0.00 99 1015.0
20260503043057 20 0 0.0 0.0 0.00 0.91 0.00 99 1015.1
20260503041554 20 0 0.0 0.0 0.00 0.91 0.00 99 1014.9
20260503040054 20 0 0.0 0.0 0.00 0.91 0.00 99 1014.5
20260503034553 20 0 0.0 0.0 0.00 0.91 0.91 99 1014.5
20260503033052 20 0 0.0 3.2 0.00 0.91 0.91 99 1013.9
20260503031552 20 0 0.0 0.0 0.00 0.91 0.91 99 1013.2
20260503030052 20 0 0.0 1.6 0.00 0.91 0.91 99 1013.7
20260503024550 20 0 0.0 3.2 0.00 0.91 0.91 99 1013.7
20260503023105 20 0 0.0 1.6 0.00 0.91 0.91 99 1013.8
20260503021602 20 0 0.0 3.2 0.00 0.91 0.91 99 1013.6
20260503020057 20 0 0.0 4.8 0.00 0.91 0.91 99 1013.4
20260503014552 20 322 0.0 3.2 0.03 0.91 0.91 99 1012.9
20260503013059 20 0 0.0 9.7 0.05 0.91 0.91 99 1012.3
20260503011608 20 316 1.6 8.0 0.05 0.91 0.91 99 1012.4
20260503010058 21 322 0.0 6.4 0.05 0.91 0.91 98 1012.2
20260503004555 21 117 0.0 9.7 0.03 0.89 0.89 98 1012.0
20260503003055 21 136 4.8 11.3 0.00 0.86 0.86 98 1011.3
20260503001619 21 35 3.2 8.0 0.00 0.86 0.86 98 1011.7
20260503000126 21 109 1.6 8.0 0.00 0.86 0.86 98 1011.9
20260502234602 21 178 1.6 4.8 0.00 0.86 0.86 98 1012.4
20260502233053 21 330 0.0 3.2 0.00 0.86 0.86 98 1012.1
20260502231553 21 0 0.0 4.8 0.08 0.86 0.86 98 1012.3
20260502230049 21 0 0.0 4.8 0.64 0.86 0.86 97 1012.3
20260502224555 20 0 0.0 0.0 0.86 0.86 0.86 97 1011.8
20260502223052 20 0 0.0 3.2 0.86 0.86 0.86 96 1011.9
20260502221607 21 314 4.8 16.1 0.79 0.79 0.79 95 1012.2
20260502214552 25 302 14.5 29.0 0.00 0.00 0.00 75 1011.9
20260502213053 28 317 8.0 19.3 0.00 0.00 0.00 71 1011.5
20260502211551 28 321 4.8 14.5 0.00 0.00 0.00 69 1011.0
20260502210108 28 314 1.6 11.3 0.00 0.00 0.00 68 1010.9
20260502204550 29 300 4.8 19.3 0.00 0.00 0.00 65 1010.8
20260502203054 30 345 6.4 16.1 0.00 0.00 0.00 65 1010.8
20260502201552 30 316 8.0 22.5 0.00 0.00 0.00 63 1010.8
20260502200115 31 296 3.2 14.5 0.00 0.00 0.00 64 1010.6
20260502194555 31 289 3.2 17.7 0.00 0.00 0.00 63 1010.8
20260502193054 31 304 4.8 22.5 0.00 0.00 0.00 61 1010.8
20260502191604 31 25 3.2 11.3 0.00 0.00 0.00 62 1010.9
20260502190058 31 303 3.2 27.4 0.00 0.00 0.00 62 1011.1
20260502184557 31 129 4.8 12.9 0.00 0.00 0.00 61 1011.0
20260502183105 31 313 4.8 20.9 0.00 0.00 0.00 62 1011.1
20260502181604 32 255 6.4 27.4 0.00 0.00 0.00 62 1011.3
20260502180103 32 325 4.8 19.3 0.00 0.00 0.00 60 1011.1
20260502163058 31 244 3.2 22.5 0.00 0.00 0.00 67 1012.0
20260502161604 31 338 8.0 20.9 0.00 0.00 0.00 67 1012.0
20260502151611 30 259 4.8 22.5 0.00 0.00 0.00 70 1012.0
20260502130105 22 185 3.2 17.7 0.00 0.00 0.00 96 1011.4
20260502123052 20 137 3.2 6.4 0.00 0.00 0.00 99 1011.3
20260502121553 20 87 1.6 6.4 0.00 0.00 0.00 99 1011.2
20260502114552 18 97 1.6 3.2 0.00 0.00 0.00 99 1011.2
20260502113055 18 34 0.0 3.2 0.00 0.00 0.00 99 1011.1
20260502111603 17 32 0.0 4.8 0.00 0.00 0.00 98 1011.1
20260502104555 17 0 0.0 0.0 0.00 0.00 0.00 98 1011.2
20260502103105 17 11 0.0 1.6 0.00 0.00 0.00 98 1011.3
20260502101603 17 0 0.0 3.2 0.00 0.00 0.00 98 1011.4
20260502090115 16 0 0.0 0.0 0.00 0.00 0.00 98 1011.5
20260502070106 17 0 0.0 0.0 0.00 0.00 0.00 97 1011.6
20260502064607 17 0 0.0 0.0 0.00 0.00 0.00 97 1011.6
20260502063054 17 0 0.0 0.0 0.00 0.00 0.00 97 1011.9
20260502061551 17 0 0.0 0.0 0.00 0.00 0.00 96 1011.9
20260502060055 17 0 0.0 0.0 0.00 0.00 0.00 96 1012.0
20260502054557 18 0 0.0 0.0 0.00 0.00 0.00 96 1012.1